User: anonymous   Login
Location: Hoyos del Collado
(40.3594°N, 5.2003°W)
Time: 16:53:03
(UTC+00:00)
Language:

Cosmos 1898 Rocket - Orbit

View from above orbital plane
View from above orbital plane
View from above satellite
View from above satellite

Ground track
Ground track

The orbit data is extracted from the following two-line orbital elements,

1 18586U 87098B   24173.22818382  .00000280  00000-0  10176-3 0  9999
2 18586  74.0063 257.6538 0019823  67.3608 292.9639 14.37629991915230
Epoch (UTC): 21 June 2024 05:28:35
Eccentricity: 0.0019823
inclination: 74.0063°
perigee height: 752 km
apogee height: 780 km
right ascension of ascending node: 257.6538°
argument of perigee: 67.3608°
revolutions per day: 14.37629991
mean anomaly at epoch: 292.9639°
orbit number at epoch: 91523

The dashed part of the orbit path shows where the satellite is in the earth's shadow,  

DLR